REMOVEDEBRIS (43510 NORAD) Tracking and Keplerian Element Data

This shows tracking and keplerian element data for the satellite.

Feedback or suggestion? Click here.




ElementValue
Catalog43510
NameREMOVEDEBRIS
Epoch Orbit19762
Epoch Day337.53833573
Epoch Year2021
RAAN87.7881
Inclination51.6155
Eccentricity0.0008139
Argument of Perigee319.9419
Mean Anonmoly40.1004
Mean Motion16.35595592
Decay Rate0.05372638
L11 43510U 98067NT 21337.53833573 .05372638 12350-4 64043-3 0 9995
L22 43510 51.6155 87.7881 0008139 319.9419 40.1004 16.35595592197628



Live tracking and technical data element details for REMOVEDEBRIS (NORAD 43510). REMOVEDEBRIS can be tracked NOW for your location showing map with azimuth and elevation plus other details from your city location.







IsCatalogInMostPopularTable: catalog: 43510, numindb: 460
Update: records affected: 1



GetName: 43510 REMOVEDEBRIS

Hit Count: updated at: Fri, 16 May 2025 10:54:52 GMT